CW5709 Weather Reports


Display with metric or nautical units.
time (UTC)temp
F
wind
direction
speed
MPH
gust
MPH
rain 1hr
in
rain 24hr
in
rain mn
in
humidity
%
barometer
mb
20260901104511 59 0.0 0.0 0.00 0.00 0.00 78 1012.1
20260901103014 59 0.0 0.0 0.00 0.00 0.00 78 1012.1
20260901101519 59 0.0 0.0 0.00 0.00 0.00 77 1012.0
20260901100029 59 0.0 0.0 0.00 0.00 0.00 77 1012.0
20260901094536 59 0.0 0.0 0.00 0.00 0.00 76 1012.0
20260901093011 59 0.0 0.0 0.00 0.00 0.00 76 1012.1
20260901091519 59 0.0 0.0 0.00 0.00 0.00 77 1012.1
20260901090025 59 0.0 0.0 0.00 0.00 0.00 78 1012.1
20260901084527 59 0.0 0.0 0.00 0.00 0.00 80 1012.0
20260901083030 58 0.0 0.0 0.00 0.00 0.00 79 1011.8
20260901081534 58 0.0 0.0 0.00 0.00 0.00 79 1011.8
20260901080020 59 0.0 0.0 0.00 0.00 0.00 78 1011.8
20260901074535 59 0.0 0.0 0.00 0.00 0.00 78 1011.8
20260901073037 59 0.0 0.0 0.00 0.00 0.00 78 1011.8
20260901071504 59 0.0 0.0 0.00 0.00 0.00 78 1011.7
20260901070004 59 0.0 0.0 0.00 0.00 0.00 77 1011.7
20260901064505 59 0.0 0.0 0.00 0.00 0.00 77 1011.6
20260901063010 60 0.0 0.0 0.00 0.00 0.00 77 1011.6
20260901061504 60 0.0 0.0 0.00 0.00 0.00 77 1011.6
20260901060003 60 0.0 0.0 0.00 0.00 0.00 76 1011.7
20260901054503 60 0.0 0.0 0.00 0.00 0.00 76 1011.5
20260901053006 60 0.0 0.0 0.00 0.00 0.00 76 1011.4
20260901051510 60 0.0 0.0 0.00 0.00 0.00 75 1011.1
20260901050004 61 0.0 0.0 0.00 0.00 0.00 74 1010.7
20260901044507 61 0.0 0.0 0.00 0.00 0.00 73 1010.8
20260901043006 62 0.0 0.0 0.00 0.00 0.00 73 1010.8
20260901041504 62 0.0 0.0 0.00 0.00 0.00 72 1010.6
20260901040005 62 0.0 0.0 0.00 0.00 0.00 70 1010.3
20260901034504 63 0.0 0.0 0.00 0.00 0.00 69 1010.0
20260901033008 64 0.0 0.0 0.00 0.00 0.00 67 1009.7
20260901031506 65 0.0 0.0 0.00 0.00 0.00 65 1009.5
20260901030005 66 0.0 0.0 0.00 0.00 0.00 63 1009.3
20260901024508 68 0.0 0.0 0.00 0.00 0.00 61 1009.2
20260901023005 69 0.0 0.0 0.00 0.00 0.00 59 1009.0
20260901021510 70 0.0 0.0 0.00 0.00 0.00 56 1008.9
20260901020005 71 0.0 0.0 0.00 0.00 0.00 54 1008.8
20260901014518 72 0.0 0.0 0.00 0.00 0.00 52 1008.8
20260901013006 73 0.0 0.0 0.00 0.00 0.00 49 1008.8
20260901011511 75 0.0 0.0 0.00 0.00 0.00 46 1008.7
20260901010007 76 0.0 0.0 0.00 0.00 0.00 44 1008.6
20260901004507 77 0.0 0.0 0.00 0.00 0.00 43 1008.5
20260901003007 78 0.0 0.0 0.00 0.00 0.00 39 1008.5
20260901001508 79 0.0 0.0 0.00 0.00 0.00 38 1008.2
20260901000010 81 0.0 0.0 0.00 0.00 0.00 37 1008.3
20260831234509 82 0.0 0.0 0.00 0.00 0.00 38 1008.3
20260831233014 83 0.0 0.0 0.00 0.00 0.00 36 1008.2
20260831231511 85 0.0 0.0 0.00 0.00 0.00 33 1008.2
20260831230017 88 0.0 0.0 0.00 0.00 0.00 28 1008.3
20260831224514 89 0.0 0.0 0.00 0.00 0.00 27 1008.4
20260831223012 90 0.0 0.0 0.00 0.00 0.00 30 1008.4
20260831221514 89 0.0 0.0 0.00 0.00 0.00 30 1008.6
20260831220015 88 0.0 0.0 0.00 0.00 0.00 31 1008.6
20260831214521 87 0.0 0.0 0.00 0.00 0.00 33 1008.6
20260831213016 86 0.0 0.0 0.00 0.00 0.00 33 1008.9
20260831211512 86 0.0 0.0 0.00 0.00 0.00 33 1009.0
20260831210012 84 0.0 0.0 0.00 0.00 0.00 36 1009.1
20260831204520 83 0.0 0.0 0.00 0.00 0.00 38 1009.3
20260831203022 84 0.0 0.0 0.00 0.00 0.00 37 1009.4
20260831201519 82 0.0 0.0 0.00 0.00 0.00 39 1009.5
20260831200012 81 0.0 0.0 0.00 0.00 0.00 42 1010.0
20260831194514 78 0.0 0.0 0.00 0.00 0.00 46 1010.2
20260831193020 75 0.0 0.0 0.00 0.00 0.00 50 1010.4
20260831191520 72 0.0 0.0 0.00 0.00 0.00 52 1010.7
20260831190022 71 0.0 0.0 0.00 0.00 0.00 54 1010.9
20260831184512 70 0.0 0.0 0.00 0.00 0.00 58 1011.0
20260831183019 68 0.0 0.0 0.00 0.00 0.00 60 1011.0
20260831181526 67 0.0 0.0 0.00 0.00 0.00 62 1011.2
20260831180025 66 0.0 0.0 0.00 0.00 0.00 63 1011.2
20260831174521 65 0.0 0.0 0.00 0.00 0.00 65 1011.2
20260831173017 64 0.0 0.0 0.00 0.00 0.00 68 1011.3
20260831171526 63 0.0 0.0 0.00 0.00 0.00 70 1011.6
20260831170031 61 0.0 0.0 0.00 0.00 0.00 72 1011.7
20260831164530 60 0.0 0.0 0.00 0.00 0.00 74 1012.0
20260831163009 58 0.0 0.0 0.00 0.00 0.00 80 1012.1
20260831161520 57 0.0 0.0 0.00 0.00 0.00 83 1012.3
20260831160032 56 0.0 0.0 0.00 0.00 0.00 86 1012.5
20260831154557 54 0.0 0.0 0.00 0.00 0.00 87 1012.6
20260831153030 53 0.0 0.0 0.00 0.00 0.00 86 1012.5
20260831151520 53 0.0 0.0 0.00 0.00 0.00 85 1012.5
20260831150024 52 0.0 0.0 0.00 0.00 0.00 85 1012.4
20260831144531 52 0.0 0.0 0.00 0.00 0.00 84 1012.4
20260831143030 51 0.0 0.0 0.00 0.00 0.00 84 1012.4
20260831141529 51 0.0 0.0 0.00 0.00 0.00 83 1012.3
20260831140028 52 0.0 0.0 0.00 0.00 0.00 83 1012.3
20260831134528 52 0.0 0.0 0.00 0.00 0.00 83 1012.3
20260831133033 52 0.0 0.0 0.00 0.00 0.00 83 1012.4
20260831131531 52 0.0 0.0 0.00 0.00 0.00 82 1012.4
20260831130018 53 0.0 0.0 0.00 0.00 0.00 82 1012.5
20260831124524 53 0.0 0.0 0.00 0.00 0.00 81 1012.5
20260831123028 53 0.0 0.0 0.00 0.00 0.00 81 1012.8
20260831121508 54 0.0 0.0 0.00 0.00 0.00 80 1012.8
20260831120016 54 0.0 0.0 0.00 0.00 0.00 79 1012.8
20260831114542 55 0.0 0.0 0.00 0.00 0.00 79 1012.9
20260831113028 55 0.0 0.0 0.00 0.00 0.00 78 1013.0
20260831111531 56 0.0 0.0 0.00 0.00 0.00 78 1013.0
20260831110012 56 0.0 0.0 0.00 0.00 0.00 77 1013.0